Location: Peebles
(55.6412°N, 3.1714°W)
Time: 13:19:24
(UTC+01:00)

ISS - Pass Details

Date: 30 September 2021
Orbit: 417 x 423 km, 51.6° (Epoch: 16 October)

Event Time Altitude Azimuth Distance (km) Brightness Sun altitude
Rises 19:57:55 0° 271° (W) 2,365 2.1 -10.4°
Reaches altitude 10° 20:00:09 10° 261° (W) 1,501 0.3 -10.7°
Maximum altitude 20:03:09 30° 198° (SSW) 777 -2.3 -11.1°
Enters shadow 20:05:40 13° 139° (SE) 1,330 -1.7 -11.4°
